Tracking 33485 objects as of 15-Mar-2026
HD Live streaming from Space Station
objects crossing your sky now

HULIANWANG DIGUI-137

Track HULIANWANG DIGUI-137 now!
10-day predictions


NORAD ID: 67435
Int'l Code: 2026-007A
Perigee: 1,153.4 km
Apogee: 1,154.2 km
Inclination: 50.0 °
Period: 108.3 minutes
Semi major axis: 7524 km
RCS: Unknown
Launch date: January 13, 2026
Source: People's Republic of China (PRC)
Launch site: Wenchang Satellite Launch Center (WSC)
Your satellite tracking list
Your tracking list is empty




NASA's NSSDC Master Catalog

Two Line Element Set (TLE):
1 67435U 26007A   26073.43031360 -.00000060  00000-0  13688-3 0  9994
2 67435  50.0077  65.6735 0000528  51.2053 308.8867 13.30018797  8185
Source of the keplerian elements: AFSPC